Weather History for Benson, MN

Change the Weather History Date:

Thursday, March 21, 2013

  Actual Average Record
Temperature  
Mean Temperature 7 °F -  
Max Temperature 21 °F 40 °F 66 °F (2012)
Min Temperature -7 °F 24 °F -12 °F (1965)
Degree Days  
Heating Degree Days 58    
Moisture  
Dew Point 0 °F    
Average Humidity 76    
Maximum Humidity 92    
Minimum Humidity 58    
Precipitation  
Precipitation 0.00 in - - ()
Sea Level Pressure  
Sea Level Pressure 30.08 in    
Wind  
Wind Speed 2 mph (North)    
Max Wind Speed 6 mph    
Max Gust Speed -    
Visibility 10 miles    
Events      
Averages and records for this station are not official NWS values.
T = Trace of Precipitation, MM = Missing Value Source: NWS Daily Summary

Daily Weather History Graph

Daily Weather History Graph

Search for Another Location

Airport:

Trip Planner

Search our weather history database for the weather conditions in past years. The results will help you decide how hot, cold, wet, or windy it might be!

Date:

Astronomy

Mar. 21, 2013 Rise Set
Actual Time 7:23 AM CDT 7:36 PM CDT
Civil Twilight 6:53 AM CDT 8:06 PM CDT
Nautical Twilight 6:19 AM CDT 8:41 PM CDT
Astronomical Twilight 5:43 AM CDT 9:16 PM CDT
Moon 1:54 PM CDT (3/21) 3:59 AM CDT (3/21)
Length of Visible Light 13h 12m
Length of Day
12h 13m
Waxing Gibbous, 69% of the Moon is Illuminated
Mar 21
Waxing Gibbous
Mar 27
Full
Apr 2
Last Quarter
Apr 10
New
Apr 18
First Quarter

Hourly Weather History & Observations

Time (CDT) Temp. Windchill Dew Point Humidity Pressure Visibility Wind Dir Wind Speed Gust Speed Precip Events Conditions
12:12 AM 3.2 °F -7.8 °F -2.2 °F 78% 30.14 in 10.0 mi North 5.8 mph - N/A   Clear
12:33 AM 1.4 °F - -2.2 °F 85% 30.13 in 10.0 mi Calm Calm - N/A   Clear
1:12 AM -0.4 °F -12.0 °F -5.8 °F 78% 30.13 in 10.0 mi NNW 5.8 mph - N/A   Clear
1:33 AM -0.4 °F -10.4 °F -4.0 °F 85% 30.13 in 10.0 mi North 4.6 mph - N/A   Clear
1:52 AM -0.4 °F -10.4 °F -4.0 °F 85% 30.12 in 10.0 mi NW 4.6 mph - N/A   Clear
2:12 AM -0.4 °F -10.4 °F -4.0 °F 85% 30.12 in 10.0 mi NNW 4.6 mph - N/A   Clear
2:33 AM -2.2 °F -12.5 °F -5.8 °F 85% 30.12 in 10.0 mi North 4.6 mph - N/A   Clear
2:52 AM -2.2 °F - -7.6 °F 78% 30.11 in 10.0 mi Calm Calm - N/A   Clear
3:12 AM -2.2 °F - -5.8 °F 85% 30.10 in 10.0 mi Calm Calm - N/A   Clear
3:33 AM -2.2 °F -12.5 °F -5.8 °F 85% 30.10 in 10.0 mi North 4.6 mph - N/A   Clear
3:52 AM -5.8 °F - -9.4 °F 84% 30.10 in 10.0 mi Calm Calm - N/A   Clear
4:12 AM -5.8 °F - -9.4 °F 84% 30.09 in 10.0 mi Calm Calm - N/A   Clear
4:33 AM -4.0 °F - -7.6 °F 85% 30.09 in 10.0 mi Calm Calm - N/A   Clear
4:52 AM -5.8 °F - -9.4 °F 84% 30.09 in 10.0 mi Calm Calm - N/A   Clear
5:13 AM -5.8 °F -14.5 °F -9.4 °F 84% 30.08 in 10.0 mi North 3.5 mph - N/A   Clear
5:33 AM -5.8 °F - -9.4 °F 84% 30.09 in 10.0 mi Calm Calm - N/A   Clear
5:52 AM -5.8 °F - -9.4 °F 84% 30.09 in 10.0 mi Calm Calm - N/A   Clear
6:13 AM -5.8 °F - -9.4 °F 84% 30.09 in 10.0 mi Calm Calm - N/A   Clear
6:32 AM -5.8 °F - -9.4 °F 84% 30.09 in 10.0 mi Calm Calm - N/A   Clear
6:53 AM -7.6 °F - -9.4 °F 92% 30.09 in 10.0 mi Calm Calm - N/A   Clear
7:12 AM -7.6 °F - -11.2 °F 84% 30.09 in 10.0 mi Calm Calm - N/A   Clear
7:32 AM -7.6 °F - -9.4 °F 92% 30.09 in 10.0 mi Calm Calm - N/A   Clear
7:53 AM -7.6 °F - -11.2 °F 84% 30.09 in 10.0 mi Calm Calm - N/A   Clear
8:12 AM -5.8 °F - -9.4 °F 84% 30.09 in 10.0 mi Calm Calm - N/A   Clear
8:32 AM -4.0 °F - -9.4 °F 78% 30.09 in 10.0 mi Calm Calm - N/A   Clear
8:53 AM -4.0 °F - -9.4 °F 78% 30.09 in 10.0 mi Calm Calm - N/A   Clear
9:12 AM -2.2 °F - -7.6 °F 78% 30.10 in 10.0 mi Calm Calm - N/A   Clear
9:33 AM 1.4 °F - -5.8 °F 72% 30.10 in 10.0 mi Calm Calm - N/A   Clear
9:53 AM 1.4 °F - -4.0 °F 78% 30.10 in 10.0 mi Calm Calm - N/A   Clear
10:12 AM 3.2 °F - -2.2 °F 78% 30.10 in 10.0 mi Calm Calm - N/A   Clear
10:33 AM 8.6 °F - -2.2 °F 62% 30.10 in 10.0 mi Calm Calm - N/A   Clear
10:52 AM 8.6 °F - -0.4 °F 67% 30.10 in 10.0 mi Calm Calm - N/A   Clear
11:12 AM 10.4 °F - -0.4 °F 62% 30.09 in 10.0 mi Calm Calm - N/A   Clear
12:12 PM 14.0 °F - 3.2 °F 62% 30.09 in 10.0 mi Calm Calm - N/A   Clear
12:52 PM 15.8 °F 10.2 °F 5.0 °F 62% 30.08 in 10.0 mi WNW 3.5 mph - N/A   Clear
1:12 PM 17.6 °F 12.3 °F 6.8 °F 63% 30.08 in 10.0 mi West 3.5 mph - N/A   Clear
1:33 PM 17.6 °F - 6.8 °F 63% 30.08 in 10.0 mi Calm Calm - N/A   Clear
1:52 PM 17.6 °F - 6.8 °F 63% 30.07 in 10.0 mi Calm Calm - N/A   Clear
2:13 PM 19.4 °F - 6.8 °F 58% 30.07 in 10.0 mi Calm Calm - N/A   Clear
2:33 PM 17.6 °F - 6.8 °F 63% 30.07 in 10.0 mi Calm Calm - N/A   Clear
2:52 PM 19.4 °F - 6.8 °F 58% 30.07 in 10.0 mi Calm Calm - N/A   Clear
3:13 PM 19.4 °F - 8.6 °F 63% 30.07 in 10.0 mi Calm Calm - N/A   Clear
3:33 PM 19.4 °F - 8.6 °F 63% 30.06 in 10.0 mi Calm Calm - N/A   Clear
3:52 PM 19.4 °F 14.3 °F 8.6 °F 63% 30.06 in 10.0 mi North 3.5 mph - N/A   Clear
4:13 PM 21.2 °F - 8.6 °F 58% 30.06 in 10.0 mi Calm Calm - N/A   Clear
4:52 PM 19.4 °F 14.3 °F 8.6 °F 63% 30.06 in 10.0 mi North 3.5 mph - N/A   Clear
5:13 PM 19.4 °F 14.3 °F 10.4 °F 68% 30.06 in 10.0 mi North 3.5 mph - N/A   Clear
5:32 PM 19.4 °F 12.8 °F 8.6 °F 63% 30.06 in 10.0 mi North 4.6 mph - N/A   Clear
5:52 PM 19.4 °F 12.8 °F 8.6 °F 63% 30.05 in 10.0 mi NNE 4.6 mph - N/A   Clear
6:13 PM 19.4 °F 14.3 °F 8.6 °F 63% 30.05 in 10.0 mi North 3.5 mph - N/A   Clear
6:32 PM 19.4 °F 14.3 °F 10.4 °F 68% 30.05 in 10.0 mi NNE 3.5 mph - N/A   Clear
6:53 PM 17.6 °F - 8.6 °F 68% 30.05 in 10.0 mi Calm Calm - N/A   Clear
7:13 PM 17.6 °F - 10.4 °F 73% 30.05 in 10.0 mi Calm Calm - N/A   Clear
7:32 PM 17.6 °F - 10.4 °F 73% 30.05 in 10.0 mi Calm Calm - N/A   Clear
7:53 PM 14.0 °F 8.2 °F 8.6 °F 79% 30.05 in 10.0 mi North 3.5 mph - N/A   Clear
8:13 PM 14.0 °F 8.2 °F 8.6 °F 79% 30.05 in 10.0 mi North 3.5 mph - N/A   Clear
8:53 PM 10.4 °F 4.0 °F 6.8 °F 85% 30.06 in 10.0 mi North 3.5 mph - N/A   Clear
9:13 PM 10.4 °F 4.0 °F 6.8 °F 85% 30.07 in 10.0 mi North 3.5 mph - N/A   Clear
9:53 PM 8.6 °F 0.1 °F 5.0 °F 85% 30.07 in 10.0 mi North 4.6 mph - N/A   Clear
10:12 PM 8.6 °F 0.1 °F 5.0 °F 85% 30.08 in 10.0 mi NNW 4.6 mph - N/A   Clear
10:33 PM 6.8 °F -0.1 °F 1.4 °F 79% 30.08 in 10.0 mi NNW 3.5 mph - N/A   Clear
10:53 PM 5.0 °F -4.1 °F 1.4 °F 85% 30.08 in 10.0 mi North 4.6 mph - N/A   Clear
11:12 PM 5.0 °F -2.1 °F 1.4 °F 85% 30.08 in 10.0 mi North 3.5 mph - N/A   Clear
11:33 PM 5.0 °F -2.1 °F 1.4 °F 85% 30.08 in 10.0 mi North 3.5 mph - N/A   Clear
11:53 PM 5.0 °F -2.1 °F 1.4 °F 85% 30.09 in 10.0 mi NNE 3.5 mph - N/A   Clear